Time,TemperatureF,DewpointF,PressureIn,WindDirection,WindDirectionDegrees,WindSpeedMPH,WindSpeedGustMPH,Humidity,HourlyPrecipIn,Conditions,Clouds,dailyrainin,SoftwareType,DateUTC
2013-06-15 00:01:00,47.1,45.5,30.06,West,270,0.0,0.0,94,0.00,,---,0.00,VWS V14.01,2013-06-15 07:01:00,
2013-06-15 00:06:00,46.9,45.3,30.06,West,270,0.0,0.0,94,0.00,,---,0.00,VWS V14.01,2013-06-15 07:06:00,
2013-06-15 00:11:00,46.9,45.3,30.03,West,270,0.0,0.0,94,0.00,,---,0.00,VWS V14.01,2013-06-15 07:11:00,
2013-06-15 00:16:00,46.8,45.1,30.03,West,270,0.0,0.0,94,0.00,,---,0.00,VWS V14.01,2013-06-15 07:16:00,
2013-06-15 00:21:00,46.6,45.0,30.03,West,270,0.0,0.0,94,0.00,,---,0.00,VWS V14.01,2013-06-15 07:21:00,
2013-06-15 00:26:00,46.4,45.0,30.03,West,270,0.0,0.0,95,0.00,,---,0.00,VWS V14.01,2013-06-15 07:26:00,
2013-06-15 00:31:00,46.6,45.2,30.03,West,270,0.0,0.0,95,0.00,,---,0.00,VWS V14.01,2013-06-15 07:31:00,
2013-06-15 00:36:00,46.6,45.2,30.03,SSE,158,0.0,0.0,95,0.00,,---,0.00,VWS V14.01,2013-06-15 07:36:00,
2013-06-15 00:41:00,46.4,45.0,30.03,South,180,0.0,0.0,95,0.00,,---,0.00,VWS V14.01,2013-06-15 07:41:00,
2013-06-15 00:46:00,46.0,44.7,30.03,South,180,0.0,0.0,95,0.00,,---,0.00,VWS V14.01,2013-06-15 07:46:00,
2013-06-15 00:51:00,45.9,44.5,30.03,South,180,0.0,0.0,95,0.00,,---,0.00,VWS V14.01,2013-06-15 07:51:00,
2013-06-15 00:56:00,45.9,44.5,30.03,South,180,0.0,0.0,95,0.00,,---,0.00,VWS V14.01,2013-06-15 07:56:00,
2013-06-15 01:01:00,45.7,44.6,30.03,South,180,0.0,0.0,96,0.00,,---,0.00,VWS V14.01,2013-06-15 08:01:00,
2013-06-15 01:06:00,45.5,44.4,30.03,South,180,0.0,0.0,96,0.00,,---,0.00,VWS V14.01,2013-06-15 08:06:00,
2013-06-15 01:11:00,45.5,44.4,30.00,SSW,202,0.0,0.0,96,0.00,,---,0.00,VWS V14.01,2013-06-15 08:11:00,
2013-06-15 01:16:00,45.3,44.2,30.00,SSW,202,0.0,0.0,96,0.00,,---,0.00,VWS V14.01,2013-06-15 08:16:00,
2013-06-15 01:21:00,45.3,44.2,30.00,SSW,202,0.0,0.0,96,0.00,,---,0.00,VWS V14.01,2013-06-15 08:21:00,
2013-06-15 01:26:00,45.3,44.2,30.03,SSW,202,0.0,0.0,96,0.00,,---,0.00,VWS V14.01,2013-06-15 08:26:00,
2013-06-15 01:31:00,45.1,44.1,30.03,SSW,202,0.0,0.0,96,0.00,,---,0.00,VWS V14.01,2013-06-15 08:31:00,
2013-06-15 01:36:00,45.1,44.1,30.03,SSW,202,0.0,0.0,96,0.00,,---,0.00,VWS V14.01,2013-06-15 08:36:00,
2013-06-15 01:41:00,45.0,44.2,30.03,SSW,202,0.0,0.0,97,0.00,,---,0.00,VWS V14.01,2013-06-15 08:41:00,
2013-06-15 01:46:00,45.0,44.2,30.03,SSW,202,0.0,0.0,97,0.00,,---,0.00,VWS V14.01,2013-06-15 08:46:00,
2013-06-15 01:51:00,45.0,44.2,30.03,SSW,202,0.0,0.0,97,0.00,,---,0.00,VWS V14.01,2013-06-15 08:51:00,
2013-06-15 01:56:00,44.8,44.0,30.03,SSW,202,0.0,0.0,97,0.00,,---,0.00,VWS V14.01,2013-06-15 08:56:00,
2013-06-15 02:02:00,44.6,43.8,30.03,SSW,202,0.0,0.0,97,0.00,,---,0.00,VWS V14.01,2013-06-15 09:02:00,
2013-06-15 02:06:00,44.8,44.0,30.03,SSW,202,0.0,0.0,97,0.00,,---,0.00,VWS V14.01,2013-06-15 09:06:00,
2013-06-15 02:12:00,44.8,44.0,30.03,SSW,202,0.0,0.0,97,0.00,,---,0.00,VWS V14.01,2013-06-15 09:12:00,
2013-06-15 02:17:00,44.8,44.0,30.03,SSW,202,0.0,0.0,97,0.00,,---,0.00,VWS V14.01,2013-06-15 09:17:00,
2013-06-15 02:22:00,44.6,43.8,30.03,SSW,202,0.0,0.0,97,0.00,,---,0.00,VWS V14.01,2013-06-15 09:22:00,
2013-06-15 02:27:00,44.6,43.8,30.00,SSW,202,0.0,0.0,97,0.00,,---,0.00,VWS V14.01,2013-06-15 09:27:00,
2013-06-15 02:32:00,44.4,43.9,30.00,SSW,202,0.0,0.0,98,0.00,,---,0.00,VWS V14.01,2013-06-15 09:32:00,
2013-06-15 02:37:00,44.4,43.9,30.00,SSW,202,0.0,0.0,98,0.00,,---,0.00,VWS V14.01,2013-06-15 09:37:00,
2013-06-15 02:42:00,44.4,43.9,30.00,SSW,202,0.0,0.0,98,0.00,,---,0.00,VWS V14.01,2013-06-15 09:42:00,
2013-06-15 02:47:00,44.6,44.1,30.00,South,180,0.0,0.0,98,0.00,,---,0.00,VWS V14.01,2013-06-15 09:47:00,
2013-06-15 02:52:00,44.6,44.1,30.00,South,180,0.0,0.0,98,0.00,,---,0.00,VWS V14.01,2013-06-15 09:52:00,
2013-06-15 02:57:00,44.6,44.1,30.00,South,180,0.0,0.0,98,0.00,,---,0.00,VWS V14.01,2013-06-15 09:57:00,
2013-06-15 03:02:00,44.6,44.1,30.00,South,180,0.0,0.0,98,0.00,,---,0.00,VWS V14.01,2013-06-15 10:02:00,
2013-06-15 03:07:00,44.2,43.7,30.00,ESE,112,0.0,0.0,98,0.00,,---,0.00,VWS V14.01,2013-06-15 10:07:00,
2013-06-15 03:12:00,44.2,43.7,30.00,ESE,112,0.0,0.0,98,0.00,,---,0.00,VWS V14.01,2013-06-15 10:12:00,
2013-06-15 03:17:00,44.1,43.5,30.00,South,180,0.0,0.0,98,0.00,,---,0.00,VWS V14.01,2013-06-15 10:17:00,
2013-06-15 03:22:00,44.1,43.5,30.00,South,180,0.0,0.0,98,0.00,,---,0.00,VWS V14.01,2013-06-15 10:22:00,
2013-06-15 03:27:00,44.1,43.5,30.00,South,180,0.0,0.0,98,0.00,,---,0.00,VWS V14.01,2013-06-15 10:27:00,
2013-06-15 03:32:00,44.1,43.5,30.00,South,180,0.0,0.0,98,0.00,,---,0.00,VWS V14.01,2013-06-15 10:32:00,
2013-06-15 03:37:00,44.1,43.5,30.00,South,180,0.0,0.0,98,0.00,,---,0.00,VWS V14.01,2013-06-15 10:37:00,
2013-06-15 03:42:00,44.1,43.5,30.00,South,180,0.0,0.0,98,0.00,,---,0.00,VWS V14.01,2013-06-15 10:42:00,
2013-06-15 03:47:00,43.9,43.3,30.00,SSE,158,0.0,0.0,98,0.00,,---,0.00,VWS V14.01,2013-06-15 10:47:00,
2013-06-15 03:52:00,43.9,43.3,30.00,SSE,158,0.0,0.0,98,0.00,,---,0.00,VWS V14.01,2013-06-15 10:52:00,
2013-06-15 03:57:00,43.9,43.3,30.00,SSE,158,0.0,0.0,98,0.00,,---,0.00,VWS V14.01,2013-06-15 10:57:00,
2013-06-15 04:02:00,43.9,43.3,30.00,SSE,158,0.0,0.0,98,0.00,,---,0.00,VWS V14.01,2013-06-15 11:02:00,
2013-06-15 04:07:00,43.9,43.3,30.00,SSE,158,0.0,0.0,98,0.00,,---,0.00,VWS V14.01,2013-06-15 11:07:00,
2013-06-15 04:12:00,43.9,43.3,30.00,SSE,158,0.0,0.0,98,0.00,,---,0.00,VWS V14.01,2013-06-15 11:12:00,
2013-06-15 04:18:00,43.9,43.3,30.00,SSE,158,0.0,0.0,98,0.00,,---,0.00,VWS V14.01,2013-06-15 11:18:00,
2013-06-15 04:23:00,43.9,43.3,30.00,SSE,158,0.0,0.0,98,0.00,,---,0.00,VWS V14.01,2013-06-15 11:23:00,
2013-06-15 04:28:00,43.9,43.3,29.97,SSE,158,0.0,0.0,98,0.00,,---,0.00,VWS V14.01,2013-06-15 11:28:00,
2013-06-15 04:33:00,43.9,43.3,29.97,SSE,158,0.0,0.0,98,0.00,,---,0.00,VWS V14.01,2013-06-15 11:33:00,
2013-06-15 04:38:00,43.9,43.3,29.97,SSE,158,0.0,0.0,98,0.00,,---,0.00,VWS V14.01,2013-06-15 11:38:00,
2013-06-15 04:43:00,43.9,43.3,30.00,SSE,158,0.0,0.0,98,0.00,,---,0.00,VWS V14.01,2013-06-15 11:43:00,
2013-06-15 04:48:00,43.9,43.3,30.00,SSE,158,0.0,0.0,98,0.00,,---,0.00,VWS V14.01,2013-06-15 11:48:00,
2013-06-15 04:53:00,43.9,43.3,30.00,SSE,158,0.0,0.0,98,0.00,,---,0.00,VWS V14.01,2013-06-15 11:53:00,
2013-06-15 04:58:00,43.9,43.3,29.97,SSE,158,0.0,0.0,98,0.00,,---,0.00,VWS V14.01,2013-06-15 11:58:00,
2013-06-15 05:03:00,43.9,43.3,29.97,SSE,158,0.0,0.0,98,0.00,,---,0.00,VWS V14.01,2013-06-15 12:03:00,
2013-06-15 05:08:00,43.9,43.3,29.97,SSE,158,0.0,0.0,98,0.00,,---,0.00,VWS V14.01,2013-06-15 12:08:00,
2013-06-15 05:13:00,43.9,43.3,30.00,SSE,158,0.0,0.0,98,0.00,,---,0.00,VWS V14.01,2013-06-15 12:13:00,
2013-06-15 05:18:00,43.9,43.3,30.00,SSE,158,0.0,0.0,98,0.00,,---,0.00,VWS V14.01,2013-06-15 12:18:00,
2013-06-15 05:23:00,43.9,43.3,30.00,SSE,158,0.0,0.0,98,0.00,,---,0.00,VWS V14.01,2013-06-15 12:23:00,
2013-06-15 05:28:00,43.9,43.3,30.00,SSE,158,0.0,0.0,98,0.00,,---,0.00,VWS V14.01,2013-06-15 12:28:00,
2013-06-15 05:33:00,44.1,43.5,30.00,SSE,158,0.0,0.0,98,0.00,,---,0.00,VWS V14.01,2013-06-15 12:33:00,
2013-06-15 05:38:00,44.1,43.5,30.00,SSW,202,0.0,0.0,98,0.00,,---,0.00,VWS V14.01,2013-06-15 12:38:00,
2013-06-15 05:43:00,44.1,43.5,30.00,SSW,202,0.0,0.0,98,0.00,,---,0.00,VWS V14.01,2013-06-15 12:43:00,
2013-06-15 05:48:00,44.1,43.5,30.00,SSW,202,0.0,0.0,98,0.00,,---,0.00,VWS V14.01,2013-06-15 12:48:00,
2013-06-15 05:53:00,43.9,43.3,30.00,South,180,0.0,0.0,98,0.00,,---,0.00,VWS V14.01,2013-06-15 12:53:00,
2013-06-15 05:58:00,43.7,43.2,30.00,South,180,0.0,0.0,98,0.00,,---,0.00,VWS V14.01,2013-06-15 12:58:00,
2013-06-15 06:04:00,43.9,43.3,30.00,SSE,158,0.0,0.0,98,0.00,,---,0.00,VWS V14.01,2013-06-15 13:04:00,
2013-06-15 06:09:00,43.9,43.3,30.00,SSE,158,0.0,0.0,98,0.00,,---,0.00,VWS V14.01,2013-06-15 13:09:00,
2013-06-15 06:14:00,44.1,43.5,30.00,South,180,0.0,0.0,98,0.00,,---,0.00,VWS V14.01,2013-06-15 13:14:00,
2013-06-15 06:19:00,44.2,43.7,30.00,South,180,0.0,0.0,98,0.00,,---,0.00,VWS V14.01,2013-06-15 13:19:00,
2013-06-15 06:24:00,44.4,43.9,30.00,South,180,0.0,0.0,98,0.00,,---,0.00,VWS V14.01,2013-06-15 13:24:00,
2013-06-15 06:29:00,44.6,44.1,30.00,South,180,0.0,0.0,98,0.00,,---,0.00,VWS V14.01,2013-06-15 13:29:00,
2013-06-15 06:34:00,44.6,44.1,30.00,WSW,248,0.0,0.0,98,0.00,,---,0.00,VWS V14.01,2013-06-15 13:34:00,
2013-06-15 06:39:00,44.8,44.2,30.00,WNW,292,0.0,0.0,98,0.00,,---,0.00,VWS V14.01,2013-06-15 13:39:00,
2013-06-15 06:44:00,45.3,44.8,30.00,WSW,248,0.0,0.0,98,0.00,,---,0.00,VWS V14.01,2013-06-15 13:44:00,
2013-06-15 06:49:00,45.5,45.0,30.00,SSW,202,0.0,0.0,98,0.00,,---,0.00,VWS V14.01,2013-06-15 13:49:00,
2013-06-15 06:54:00,45.7,45.2,30.00,SSW,202,0.0,0.0,98,0.00,,---,0.00,VWS V14.01,2013-06-15 13:54:00,
2013-06-15 06:59:00,46.2,45.7,30.00,SSW,202,0.0,0.0,98,0.00,,---,0.00,VWS V14.01,2013-06-15 13:59:00,
2013-06-15 07:04:00,46.4,45.9,30.00,SSW,202,0.0,0.0,98,0.00,,---,0.00,VWS V14.01,2013-06-15 14:04:00,
2013-06-15 07:09:00,46.9,46.4,30.00,SSW,202,0.0,0.0,98,0.00,,---,0.00,VWS V14.01,2013-06-15 14:09:00,
2013-06-15 07:14:00,47.1,46.6,30.00,South,180,0.9,0.9,98,0.00,,---,0.00,VWS V14.01,2013-06-15 14:14:00,
2013-06-15 07:19:00,46.9,46.4,30.00,South,180,0.0,0.0,98,0.00,,---,0.00,VWS V14.01,2013-06-15 14:19:00,
2013-06-15 07:24:00,47.3,46.8,30.00,South,180,0.0,0.0,98,0.00,,---,0.00,VWS V14.01,2013-06-15 14:24:00,
2013-06-15 07:29:00,47.5,47.0,30.00,SW,225,0.0,0.0,98,0.00,,---,0.00,VWS V14.01,2013-06-15 14:29:00,
2013-06-15 07:34:00,47.8,47.3,30.00,SSW,202,0.9,1.1,98,0.00,,---,0.00,VWS V14.01,2013-06-15 14:34:00,
2013-06-15 07:39:00,48.2,47.7,30.00,South,180,1.3,2.2,98,0.00,,---,0.00,VWS V14.01,2013-06-15 14:39:00,
2013-06-15 07:44:00,48.7,48.2,30.00,South,180,0.0,0.0,98,0.00,,---,0.00,VWS V14.01,2013-06-15 14:44:00,
2013-06-15 07:49:00,48.9,48.4,30.00,South,180,0.0,1.1,98,0.00,,---,0.00,VWS V14.01,2013-06-15 14:49:00,
2013-06-15 07:54:00,49.5,48.7,30.00,South,180,0.0,0.0,97,0.00,,---,0.00,VWS V14.01,2013-06-15 14:54:00,
2013-06-15 07:59:00,50.5,49.7,30.00,South,180,0.0,0.0,97,0.00,,---,0.00,VWS V14.01,2013-06-15 14:59:00,
2013-06-15 08:04:00,51.3,50.4,30.00,SSE,158,0.0,0.0,97,0.00,,---,0.00,VWS V14.01,2013-06-15 15:04:00,
2013-06-15 08:10:00,52.9,52.0,30.00,SSE,158,0.0,0.0,97,0.00,,---,0.00,VWS V14.01,2013-06-15 15:10:00,
2013-06-15 08:15:00,55.0,53.6,30.00,South,180,0.0,0.0,95,0.00,,---,0.00,VWS V14.01,2013-06-15 15:15:00,
2013-06-15 08:20:00,57.7,56.0,30.00,ESE,112,0.0,0.0,94,0.00,,---,0.00,VWS V14.01,2013-06-15 15:20:00,
2013-06-15 08:25:00,59.9,57.3,30.00,SSE,158,0.0,0.0,91,0.00,,---,0.00,VWS V14.01,2013-06-15 15:25:00,
2013-06-15 08:30:00,61.9,58.0,30.00,SSE,158,0.0,0.0,87,0.00,,---,0.00,VWS V14.01,2013-06-15 15:30:00,
2013-06-15 08:35:00,63.3,57.0,30.00,East,90,2.0,2.0,80,0.00,,---,0.00,VWS V14.01,2013-06-15 15:35:00,
2013-06-15 08:40:00,64.4,56.3,30.00,East,90,0.0,0.0,75,0.00,,---,0.00,VWS V14.01,2013-06-15 15:40:00,
2013-06-15 08:45:00,66.0,56.4,30.00,South,180,0.0,0.0,71,0.00,,---,0.00,VWS V14.01,2013-06-15 15:45:00,
2013-06-15 08:50:00,67.3,57.6,30.00,SSE,158,0.0,0.0,71,0.00,,---,0.00,VWS V14.01,2013-06-15 15:50:00,
2013-06-15 08:55:00,68.2,56.0,30.00,South,180,1.1,1.1,65,0.00,,---,0.00,VWS V14.01,2013-06-15 15:55:00,
2013-06-15 09:00:00,69.6,56.0,30.00,East,90,0.0,0.9,62,0.00,,---,0.00,VWS V14.01,2013-06-15 16:00:00,
2013-06-15 09:05:00,70.7,56.2,30.00,South,180,0.0,0.0,60,0.00,,---,0.00,VWS V14.01,2013-06-15 16:05:00,
2013-06-15 09:10:00,71.4,54.4,30.00,ESE,112,0.0,0.0,55,0.00,,---,0.00,VWS V14.01,2013-06-15 16:10:00,
2013-06-15 09:15:00,72.0,55.9,30.00,WSW,248,1.1,2.0,57,0.00,,---,0.00,VWS V14.01,2013-06-15 16:15:00,
2013-06-15 09:20:00,72.0,51.8,30.00,West,270,1.1,2.7,49,0.00,,---,0.00,VWS V14.01,2013-06-15 16:20:00,
2013-06-15 09:25:00,71.6,49.8,30.00,West,270,2.0,2.9,46,0.00,,---,0.00,VWS V14.01,2013-06-15 16:25:00,
2013-06-15 09:30:00,71.8,50.5,30.00,WSW,248,1.6,2.0,47,0.00,,---,0.00,VWS V14.01,2013-06-15 16:30:00,
2013-06-15 09:35:00,71.4,49.0,30.00,West,270,1.3,2.9,45,0.00,,---,0.00,VWS V14.01,2013-06-15 16:35:00,
2013-06-15 09:40:00,72.5,50.6,29.97,West,270,1.6,2.9,46,0.00,,---,0.00,VWS V14.01,2013-06-15 16:40:00,
2013-06-15 09:45:00,74.1,52.0,29.97,WSW,248,0.0,1.6,46,0.00,,---,0.00,VWS V14.01,2013-06-15 16:45:00,
2013-06-15 09:50:00,75.9,53.1,29.97,SSE,158,2.5,2.5,45,0.00,,---,0.00,VWS V14.01,2013-06-15 16:50:00,
2013-06-15 09:55:00,77.0,54.1,29.97,SE,135,0.0,0.0,45,0.00,,---,0.00,VWS V14.01,2013-06-15 16:55:00,
2013-06-15 10:00:00,77.0,53.4,29.97,South,180,0.0,0.9,44,0.00,,---,0.00,VWS V14.01,2013-06-15 17:00:00,
2013-06-15 10:05:00,76.8,53.3,29.97,SW,225,0.0,1.1,44,0.00,,---,0.00,VWS V14.01,2013-06-15 17:05:00,
2013-06-15 10:10:00,78.3,53.3,29.97,SSE,158,0.0,1.3,42,0.00,,---,0.00,VWS V14.01,2013-06-15 17:10:00,
2013-06-15 10:15:00,79.0,52.6,29.97,South,180,2.5,2.5,40,0.00,,---,0.00,VWS V14.01,2013-06-15 17:15:00,
2013-06-15 10:20:00,78.4,52.8,29.97,SSW,202,0.9,2.5,41,0.00,,---,0.00,VWS V14.01,2013-06-15 17:20:00,
2013-06-15 10:25:00,79.9,53.4,29.97,South,180,0.0,1.3,40,0.00,,---,0.00,VWS V14.01,2013-06-15 17:25:00,
2013-06-15 10:30:00,79.9,51.3,29.97,South,180,0.0,1.1,37,0.00,,---,0.00,VWS V14.01,2013-06-15 17:30:00,
2013-06-15 10:35:00,79.0,49.8,29.97,South,180,1.1,1.1,36,0.00,,---,0.00,VWS V14.01,2013-06-15 17:35:00,
2013-06-15 10:40:00,79.3,48.6,29.97,SSW,202,2.9,2.9,34,0.00,,---,0.00,VWS V14.01,2013-06-15 17:40:00,
2013-06-15 10:45:00,79.7,49.7,29.97,SW,225,0.0,2.0,35,0.00,,---,0.00,VWS V14.01,2013-06-15 17:45:00,
2013-06-15 10:50:00,80.1,49.2,29.97,WSW,248,0.0,3.1,34,0.00,,---,0.00,VWS V14.01,2013-06-15 17:50:00,
2013-06-15 10:55:00,81.0,50.8,29.97,ESE,112,0.0,1.3,35,0.00,,---,0.00,VWS V14.01,2013-06-15 17:55:00,
2013-06-15 11:00:00,80.2,47.7,29.97,SSW,202,1.3,2.2,32,0.00,,---,0.00,VWS V14.01,2013-06-15 18:00:00,
2013-06-15 11:05:00,80.6,48.9,29.97,South,180,0.0,2.2,33,0.00,,---,0.00,VWS V14.01,2013-06-15 18:05:00,
2013-06-15 11:10:00,82.4,52.0,29.97,ESE,112,0.0,0.0,35,0.00,,---,0.00,VWS V14.01,2013-06-15 18:10:00,
2013-06-15 11:15:00,82.6,51.4,29.97,SE,135,0.0,1.3,34,0.00,,---,0.00,VWS V14.01,2013-06-15 18:15:00,
2013-06-15 11:20:00,83.1,49.4,29.97,ESE,112,1.3,2.5,31,0.00,,---,0.00,VWS V14.01,2013-06-15 18:20:00,
2013-06-15 11:25:00,82.9,50.9,29.97,SSW,202,2.2,3.6,33,0.00,,---,0.00,VWS V14.01,2013-06-15 18:25:00,
2013-06-15 11:30:00,82.9,50.1,29.97,WSW,248,0.0,2.0,32,0.00,,---,0.00,VWS V14.01,2013-06-15 18:30:00,
2013-06-15 11:35:00,84.6,53.1,29.97,ENE,68,0.0,0.0,34,0.00,,---,0.00,VWS V14.01,2013-06-15 18:35:00,
2013-06-15 11:40:00,84.0,51.8,29.97,SSE,158,0.0,2.5,33,0.00,,---,0.00,VWS V14.01,2013-06-15 18:40:00,
2013-06-15 11:46:00,83.7,50.7,29.97,South,180,2.0,2.7,32,0.00,,---,0.00,VWS V14.01,2013-06-15 18:46:00,
2013-06-15 11:51:00,83.7,50.7,29.97,WSW,248,0.0,0.0,32,0.00,,---,0.00,VWS V14.01,2013-06-15 18:51:00,
2013-06-15 11:56:00,84.0,51.0,29.97,WSW,248,1.3,1.3,32,0.00,,---,0.00,VWS V14.01,2013-06-15 18:56:00,
2013-06-15 12:01:00,82.0,48.5,29.97,ESE,112,0.0,0.9,31,0.00,,---,0.00,VWS V14.01,2013-06-15 19:01:00,
2013-06-15 12:06:00,82.8,50.8,29.97,West,270,0.0,0.0,33,0.00,,---,0.00,VWS V14.01,2013-06-15 19:06:00,
2013-06-15 12:11:00,83.3,51.2,29.97,SW,225,0.0,2.0,33,0.00,,---,0.00,VWS V14.01,2013-06-15 19:11:00,
2013-06-15 12:16:00,84.6,50.6,29.97,East,90,2.0,2.0,31,0.00,,---,0.00,VWS V14.01,2013-06-15 19:16:00,
2013-06-15 12:21:00,85.3,51.2,29.97,ENE,68,1.6,1.6,31,0.00,,---,0.00,VWS V14.01,2013-06-15 19:21:00,
2013-06-15 12:26:00,85.6,50.7,29.97,ENE,68,2.9,2.9,30,0.00,,---,0.00,VWS V14.01,2013-06-15 19:26:00,
2013-06-15 12:31:00,84.6,48.8,29.97,SSW,202,0.9,2.0,29,0.00,,---,0.00,VWS V14.01,2013-06-15 19:31:00,
2013-06-15 12:36:00,85.1,49.3,29.97,WSW,248,2.5,2.5,29,0.00,,---,0.00,VWS V14.01,2013-06-15 19:36:00,
2013-06-15 12:41:00,84.0,45.5,29.97,West,270,1.1,2.2,26,0.00,,---,0.00,VWS V14.01,2013-06-15 19:41:00,
2013-06-15 12:46:00,84.6,43.8,29.97,West,270,3.4,3.6,24,0.00,,---,0.00,VWS V14.01,2013-06-15 19:46:00,
2013-06-15 12:51:00,85.1,44.3,29.97,West,270,2.5,2.5,24,0.00,,---,0.00,VWS V14.01,2013-06-15 19:51:00,
2013-06-15 12:56:00,84.7,42.9,29.94,South,180,4.0,4.0,23,0.00,,---,0.00,VWS V14.01,2013-06-15 19:56:00,
2013-06-15 13:01:00,84.2,43.5,29.94,SSW,202,0.9,0.9,24,0.00,,---,0.00,VWS V14.01,2013-06-15 20:01:00,
2013-06-15 13:06:00,84.4,41.4,29.94,SW,225,0.0,1.3,22,0.00,,---,0.00,VWS V14.01,2013-06-15 20:06:00,
2013-06-15 13:11:00,85.6,41.3,29.91,NNE,22,0.0,1.6,21,0.00,,---,0.00,VWS V14.01,2013-06-15 20:11:00,
2013-06-15 13:16:00,86.7,40.9,29.91,SSE,158,0.0,0.0,20,0.00,,---,0.00,VWS V14.01,2013-06-15 20:16:00,
2013-06-15 13:21:00,87.1,42.5,29.91,West,270,2.2,2.2,21,0.00,,---,0.00,VWS V14.01,2013-06-15 20:21:00,
2013-06-15 13:26:00,86.4,40.6,29.94,ESE,112,0.0,2.2,20,0.00,,---,0.00,VWS V14.01,2013-06-15 20:26:00,
2013-06-15 13:31:00,85.3,41.0,29.94,South,180,2.0,2.9,21,0.00,,---,0.00,VWS V14.01,2013-06-15 20:31:00,
2013-06-15 13:36:00,84.6,39.1,29.94,SW,225,2.7,3.6,20,0.00,,---,0.00,VWS V14.01,2013-06-15 20:36:00,
2013-06-15 13:41:00,84.9,40.7,29.91,NW,315,0.0,1.3,21,0.00,,---,0.00,VWS V14.01,2013-06-15 20:41:00,
2013-06-15 13:46:00,84.9,41.9,29.91,West,270,0.0,0.9,22,0.00,,---,0.00,VWS V14.01,2013-06-15 20:46:00,
2013-06-15 13:51:00,84.6,39.1,29.91,South,180,0.0,1.6,20,0.00,,---,0.00,VWS V14.01,2013-06-15 20:51:00,
2013-06-15 13:56:00,84.2,41.3,29.88,WSW,248,1.1,1.6,22,0.00,,---,0.00,VWS V14.01,2013-06-15 20:56:00,
2013-06-15 14:01:00,84.0,39.9,29.88,SW,225,2.2,3.1,21,0.00,,---,0.00,VWS V14.01,2013-06-15 21:01:00,
2013-06-15 14:06:00,84.4,40.2,29.88,ESE,112,1.3,2.7,21,0.00,,---,0.00,VWS V14.01,2013-06-15 21:06:00,
2013-06-15 14:11:00,84.9,41.9,29.91,ESE,112,2.0,2.7,22,0.00,,---,0.00,VWS V14.01,2013-06-15 21:11:00,
2013-06-15 14:17:00,84.9,40.7,29.91,West,270,2.2,2.2,21,0.00,,---,0.00,VWS V14.01,2013-06-15 21:17:00,
2013-06-15 14:22:00,84.4,40.2,29.91,WSW,248,2.5,2.5,21,0.00,,---,0.00,VWS V14.01,2013-06-15 21:22:00,
2013-06-15 14:27:00,84.4,40.2,29.91,SSW,202,0.0,1.1,21,0.00,,---,0.00,VWS V14.01,2013-06-15 21:27:00,
2013-06-15 14:32:00,85.6,42.5,29.91,ENE,68,0.0,1.6,22,0.00,,---,0.00,VWS V14.01,2013-06-15 21:32:00,
2013-06-15 14:37:00,84.9,40.7,29.91,North,0,1.6,1.6,21,0.00,,---,0.00,VWS V14.01,2013-06-15 21:37:00,
2013-06-15 14:42:00,84.2,38.8,29.91,East,90,0.9,2.0,20,0.00,,---,0.00,VWS V14.01,2013-06-15 21:42:00,
2013-06-15 14:47:00,84.6,40.4,29.91,South,180,0.0,0.0,21,0.00,,---,0.00,VWS V14.01,2013-06-15 21:47:00,
2013-06-15 14:52:00,84.2,38.8,29.91,NE,45,1.1,1.1,20,0.00,,---,0.00,VWS V14.01,2013-06-15 21:52:00,
2013-06-15 14:57:00,84.4,40.2,29.88,South,180,0.0,0.0,21,0.00,,---,0.00,VWS V14.01,2013-06-15 21:57:00,
2013-06-15 15:02:00,84.4,40.2,29.88,South,180,0.0,0.0,21,0.00,,---,0.00,VWS V14.01,2013-06-15 22:02:00,
2013-06-15 15:07:00,85.1,40.8,29.88,SW,225,1.6,2.2,21,0.00,,---,0.00,VWS V14.01,2013-06-15 22:07:00,
2013-06-15 15:12:00,85.1,40.8,29.94,ENE,68,2.9,2.9,21,0.00,,---,0.00,VWS V14.01,2013-06-15 22:12:00,
2013-06-15 15:17:00,84.0,41.1,29.94,NNE,22,1.6,2.0,22,0.00,,---,0.00,VWS V14.01,2013-06-15 22:17:00,
2013-06-15 15:22:00,83.8,39.8,29.94,ENE,68,0.0,0.0,21,0.00,,---,0.00,VWS V14.01,2013-06-15 22:22:00,
2013-06-15 15:27:00,84.2,40.1,29.91,South,180,0.0,2.7,21,0.00,,---,0.00,VWS V14.01,2013-06-15 22:27:00,
2013-06-15 15:32:00,83.7,40.8,29.91,SSW,202,0.0,0.0,22,0.00,,---,0.00,VWS V14.01,2013-06-15 22:32:00,
2013-06-15 15:37:00,83.8,41.0,29.91,SW,225,0.9,2.0,22,0.00,,---,0.00,VWS V14.01,2013-06-15 22:37:00,
2013-06-15 15:42:00,84.0,41.1,29.91,SSE,158,0.0,1.1,22,0.00,,---,0.00,VWS V14.01,2013-06-15 22:42:00,
2013-06-15 15:47:00,84.2,41.3,29.91,ENE,68,0.0,0.9,22,0.00,,---,0.00,VWS V14.01,2013-06-15 22:47:00,
2013-06-15 15:52:00,83.8,43.2,29.91,West,270,0.9,2.5,24,0.00,,---,0.00,VWS V14.01,2013-06-15 22:52:00,
2013-06-15 15:57:00,82.8,47.3,29.94,SSE,158,0.0,1.1,29,0.00,,---,0.00,VWS V14.01,2013-06-15 22:57:00,
2013-06-15 16:02:00,82.8,48.2,29.94,South,180,0.0,0.0,30,0.00,,---,0.00,VWS V14.01,2013-06-15 23:02:00,
2013-06-15 16:07:00,82.8,49.1,29.94,WSW,248,0.0,3.1,31,0.00,,---,0.00,VWS V14.01,2013-06-15 23:07:00,
2013-06-15 16:12:00,82.6,48.9,29.91,WSW,248,2.5,2.5,31,0.00,,---,0.00,VWS V14.01,2013-06-15 23:12:00,
2013-06-15 16:17:00,82.2,50.3,29.91,West,270,0.0,3.6,33,0.00,,---,0.00,VWS V14.01,2013-06-15 23:17:00,
2013-06-15 16:23:00,81.3,49.5,29.91,West,270,0.0,2.2,33,0.00,,---,0.00,VWS V14.01,2013-06-15 23:23:00,
2013-06-15 16:28:00,80.1,49.2,29.94,West,270,2.2,3.8,34,0.00,,---,0.00,VWS V14.01,2013-06-15 23:28:00,
2013-06-15 16:33:00,81.3,50.3,29.94,North,0,0.9,0.9,34,0.00,,---,0.00,VWS V14.01,2013-06-15 23:33:00,
2013-06-15 16:38:00,82.8,51.6,29.94,NNW,338,1.3,1.3,34,0.00,,---,0.00,VWS V14.01,2013-06-15 23:38:00,
2013-06-15 16:43:00,83.8,52.5,29.91,ENE,68,0.9,1.6,34,0.00,,---,0.00,VWS V14.01,2013-06-15 23:43:00,
2013-06-15 16:48:00,82.8,49.9,29.91,West,270,3.6,3.6,32,0.00,,---,0.00,VWS V14.01,2013-06-15 23:48:00,
2013-06-15 16:53:00,81.9,50.8,29.91,West,270,1.6,1.6,34,0.00,,---,0.00,VWS V14.01,2013-06-15 23:53:00,
2013-06-15 16:58:00,82.6,51.4,29.88,West,270,0.0,2.9,34,0.00,,---,0.00,VWS V14.01,2013-06-15 23:58:00,
2013-06-15 17:03:00,82.2,51.1,29.88,WNW,292,1.6,3.1,34,0.00,,---,0.00,VWS V14.01,2013-06-16 00:03:00,
2013-06-15 17:08:00,81.7,50.6,29.88,West,270,2.5,6.9,34,0.00,,---,0.00,VWS V14.01,2013-06-16 00:08:00,
2013-06-15 17:13:00,79.7,48.9,29.91,West,270,3.1,3.4,34,0.00,,---,0.00,VWS V14.01,2013-06-16 00:13:00,
2013-06-15 17:18:00,79.7,50.4,29.91,WSW,248,3.4,3.4,36,0.00,,---,0.00,VWS V14.01,2013-06-16 00:18:00,
2013-06-15 17:23:00,79.3,50.1,29.91,West,270,0.0,2.5,36,0.00,,---,0.00,VWS V14.01,2013-06-16 00:23:00,
2013-06-15 17:28:00,79.5,50.2,29.91,SW,225,1.3,2.5,36,0.00,,---,0.00,VWS V14.01,2013-06-16 00:28:00,
2013-06-15 17:33:00,78.4,50.0,29.91,West,270,1.3,1.6,37,0.00,,---,0.00,VWS V14.01,2013-06-16 00:33:00,
2013-06-15 17:38:00,77.4,49.1,29.91,SW,225,0.0,3.4,37,0.00,,---,0.00,VWS V14.01,2013-06-16 00:38:00,
2013-06-15 17:43:00,77.2,50.3,29.91,SW,225,0.0,0.0,39,0.00,,---,0.00,VWS V14.01,2013-06-16 00:43:00,
2013-06-15 17:48:00,76.5,51.0,29.91,WSW,248,0.9,2.5,41,0.00,,---,0.00,VWS V14.01,2013-06-16 00:48:00,
2013-06-15 17:53:00,75.9,50.5,29.91,West,270,0.0,1.6,41,0.00,,---,0.00,VWS V14.01,2013-06-16 00:53:00,
2013-06-15 17:58:00,75.9,51.2,29.91,SW,225,0.0,0.9,42,0.00,,---,0.00,VWS V14.01,2013-06-16 00:58:00,
2013-06-15 18:03:00,75.4,50.1,29.91,WSW,248,0.0,0.0,41,0.00,,---,0.00,VWS V14.01,2013-06-16 01:03:00,
2013-06-15 18:08:00,75.2,49.9,29.91,West,270,0.0,3.6,41,0.00,,---,0.00,VWS V14.01,2013-06-16 01:08:00,
2013-06-15 18:13:00,74.5,49.9,29.91,West,270,2.7,3.1,42,0.00,,---,0.00,VWS V14.01,2013-06-16 01:13:00,
2013-06-15 18:18:00,73.9,49.4,29.91,West,270,2.7,4.7,42,0.00,,---,0.00,VWS V14.01,2013-06-16 01:18:00,
2013-06-15 18:23:00,73.2,49.4,29.91,West,270,0.0,3.4,43,0.00,,---,0.00,VWS V14.01,2013-06-16 01:23:00,
2013-06-15 18:29:00,72.3,49.2,29.94,WNW,292,0.0,0.0,44,0.00,,---,0.00,VWS V14.01,2013-06-16 01:29:00,
2013-06-15 18:34:00,71.8,48.7,29.94,SSW,202,1.1,2.7,44,0.00,,---,0.00,VWS V14.01,2013-06-16 01:34:00,
2013-06-15 18:39:00,71.2,49.4,29.94,West,270,0.0,0.9,46,0.00,,---,0.00,VWS V14.01,2013-06-16 01:39:00,
2013-06-15 18:44:00,70.9,49.7,29.94,West,270,0.0,1.1,47,0.00,,---,0.00,VWS V14.01,2013-06-16 01:44:00,
2013-06-15 18:49:00,70.7,49.5,29.94,West,270,2.0,2.2,47,0.00,,---,0.00,VWS V14.01,2013-06-16 01:49:00,
2013-06-15 18:54:00,70.5,49.3,29.94,SW,225,0.0,0.0,47,0.00,,---,0.00,VWS V14.01,2013-06-16 01:54:00,
2013-06-15 18:59:00,70.5,49.3,29.94,SW,225,0.0,1.1,47,0.00,,---,0.00,VWS V14.01,2013-06-16 01:59:00,
2013-06-15 19:04:00,70.7,50.1,29.94,SW,225,0.0,1.1,48,0.00,,---,0.00,VWS V14.01,2013-06-16 02:04:00,
2013-06-15 19:09:00,70.9,50.8,29.94,West,270,0.0,2.7,49,0.00,,---,0.00,VWS V14.01,2013-06-16 02:09:00,
2013-06-15 19:14:00,70.9,50.2,29.97,WSW,248,1.3,3.1,48,0.00,,---,0.00,VWS V14.01,2013-06-16 02:14:00,
2013-06-15 19:19:00,70.9,50.8,29.97,WSW,248,0.0,0.9,49,0.00,,---,0.00,VWS V14.01,2013-06-16 02:19:00,
2013-06-15 19:24:00,70.9,50.8,29.97,West,270,0.0,2.2,49,0.00,,---,0.00,VWS V14.01,2013-06-16 02:24:00,
2013-06-15 19:29:00,70.5,50.5,29.97,WNW,292,3.1,4.3,49,0.00,,---,0.00,VWS V14.01,2013-06-16 02:29:00,
2013-06-15 19:34:00,70.2,50.1,29.97,WSW,248,2.5,2.5,49,0.00,,---,0.00,VWS V14.01,2013-06-16 02:34:00,
2013-06-15 19:39:00,70.0,50.5,29.97,SW,225,0.9,0.9,50,0.00,,---,0.00,VWS V14.01,2013-06-16 02:39:00,
2013-06-15 19:44:00,69.8,50.3,29.97,SSE,158,0.9,1.3,50,0.00,,---,0.00,VWS V14.01,2013-06-16 02:44:00,
2013-06-15 19:49:00,69.4,50.0,29.97,West,270,1.6,1.6,50,0.00,,---,0.00,VWS V14.01,2013-06-16 02:49:00,
2013-06-15 19:54:00,69.1,50.7,29.97,WSW,248,1.1,2.2,52,0.00,,---,0.00,VWS V14.01,2013-06-16 02:54:00,
2013-06-15 20:00:00,68.5,50.2,30.00,WSW,248,0.0,0.0,52,0.00,,---,0.00,VWS V14.01,2013-06-16 03:00:00,
2013-06-15 20:05:00,68.0,50.2,30.00,WSW,248,0.0,1.3,53,0.00,,---,0.00,VWS V14.01,2013-06-16 03:05:00,
2013-06-15 20:10:00,67.5,49.8,30.00,West,270,0.0,0.0,53,0.00,,---,0.00,VWS V14.01,2013-06-16 03:10:00,
2013-06-15 20:15:00,66.9,50.2,29.97,West,270,0.9,2.5,55,0.00,,---,0.00,VWS V14.01,2013-06-16 03:15:00,
2013-06-15 20:20:00,66.4,49.7,29.97,WSW,248,0.0,0.0,55,0.00,,---,0.00,VWS V14.01,2013-06-16 03:20:00,
2013-06-15 20:25:00,65.8,49.7,29.97,NNW,338,3.8,3.8,56,0.00,,---,0.00,VWS V14.01,2013-06-16 03:25:00,
2013-06-15 20:30:00,65.1,50.0,29.97,WNW,292,4.7,4.7,58,0.00,,---,0.00,VWS V14.01,2013-06-16 03:30:00,
2013-06-15 20:35:00,64.4,49.8,29.97,West,270,0.0,0.0,59,0.00,,---,0.00,VWS V14.01,2013-06-16 03:35:00,
2013-06-15 20:40:00,64.0,49.9,29.97,WSW,248,0.0,0.0,60,0.00,,---,0.00,VWS V14.01,2013-06-16 03:40:00,
2013-06-15 20:45:00,63.7,50.4,29.97,East,90,0.0,0.0,62,0.00,,---,0.00,VWS V14.01,2013-06-16 03:45:00,
2013-06-15 20:50:00,63.3,50.1,29.97,WSW,248,0.0,1.1,62,0.00,,---,0.00,VWS V14.01,2013-06-16 03:50:00,
2013-06-15 20:55:00,63.0,50.2,29.97,SW,225,0.0,0.0,63,0.00,,---,0.00,VWS V14.01,2013-06-16 03:55:00,
2013-06-15 21:00:00,62.8,50.0,30.00,SW,225,0.0,0.0,63,0.00,,---,0.00,VWS V14.01,2013-06-16 04:00:00,
2013-06-15 21:01:00,62.6,50.3,30.00,SW,225,0.0,0.0,64,0.00,,---,0.00,VWS V14.01,2013-06-16 04:01:00,
2013-06-15 21:02:00,62.6,49.8,30.00,SW,225,0.0,0.0,63,0.00,,---,0.00,VWS V14.01,2013-06-16 04:02:00,
2013-06-15 21:05:00,62.4,50.1,30.00,WSW,248,0.0,0.0,64,0.00,,---,0.00,VWS V14.01,2013-06-16 04:05:00,
2013-06-15 21:10:00,61.9,50.0,30.00,WSW,248,0.0,0.0,65,0.00,,---,0.00,VWS V14.01,2013-06-16 04:10:00,
2013-06-15 21:15:00,61.7,50.2,30.00,WSW,248,0.0,0.0,66,0.00,,---,0.00,VWS V14.01,2013-06-16 04:15:00,
2013-06-15 21:20:00,61.3,49.9,30.00,WSW,248,0.0,0.0,66,0.00,,---,0.00,VWS V14.01,2013-06-16 04:20:00,
2013-06-15 21:25:00,61.0,50.0,30.00,WSW,248,0.0,0.0,67,0.00,,---,0.00,VWS V14.01,2013-06-16 04:25:00,
2013-06-15 21:30:00,60.6,49.6,30.00,WSW,248,0.0,0.0,67,0.00,,---,0.00,VWS V14.01,2013-06-16 04:30:00,
2013-06-15 21:35:00,60.3,49.7,30.00,West,270,0.0,1.3,68,0.00,,---,0.00,VWS V14.01,2013-06-16 04:35:00,
2013-06-15 21:40:00,59.9,49.7,30.00,West,270,0.0,0.0,69,0.00,,---,0.00,VWS V14.01,2013-06-16 04:40:00,
2013-06-15 21:45:00,59.5,49.4,30.00,WNW,292,0.0,0.0,69,0.00,,---,0.00,VWS V14.01,2013-06-16 04:45:00,
2013-06-15 21:50:00,59.2,49.4,30.00,SSE,158,0.0,0.0,70,0.00,,---,0.00,VWS V14.01,2013-06-16 04:50:00,
2013-06-15 21:55:00,59.0,49.6,30.03,NNW,338,0.0,0.0,71,0.00,,---,0.00,VWS V14.01,2013-06-16 04:55:00,
2013-06-15 22:00:00,58.8,49.8,30.03,NNW,338,0.0,0.0,72,0.00,,---,0.00,VWS V14.01,2013-06-16 05:00:00,
2013-06-15 22:05:00,58.5,49.5,30.03,SW,225,0.0,0.0,72,0.00,,---,0.00,VWS V14.01,2013-06-16 05:05:00,
2013-06-15 22:10:00,58.1,49.1,30.03,SW,225,0.0,0.0,72,0.00,,---,0.00,VWS V14.01,2013-06-16 05:10:00,
2013-06-15 22:16:00,57.9,49.3,30.03,South,180,0.0,0.0,73,0.00,,---,0.00,VWS V14.01,2013-06-16 05:16:00,
2013-06-15 22:21:00,57.6,49.0,30.03,South,180,0.0,0.0,73,0.00,,---,0.00,VWS V14.01,2013-06-16 05:21:00,
2013-06-15 22:26:00,57.4,48.8,30.03,SSE,158,0.0,0.0,73,0.00,,---,0.00,VWS V14.01,2013-06-16 05:26:00,
2013-06-15 22:31:00,57.0,48.8,30.03,ENE,68,0.0,0.0,74,0.00,,---,0.00,VWS V14.01,2013-06-16 05:31:00,
2013-06-15 22:36:00,56.8,49.4,30.03,South,180,0.0,0.0,76,0.00,,---,0.00,VWS V14.01,2013-06-16 05:36:00,
2013-06-15 22:41:00,56.7,49.2,30.03,South,180,0.0,0.0,76,0.00,,---,0.00,VWS V14.01,2013-06-16 05:41:00,
2013-06-15 22:46:00,56.5,49.0,30.03,South,180,0.0,0.0,76,0.00,,---,0.00,VWS V14.01,2013-06-16 05:46:00,
2013-06-15 22:51:00,56.1,49.0,30.03,South,180,0.0,0.0,77,0.00,,---,0.00,VWS V14.01,2013-06-16 05:51:00,
2013-06-15 22:56:00,55.9,49.2,30.00,South,180,0.0,0.0,78,0.00,,---,0.00,VWS V14.01,2013-06-16 05:56:00,
2013-06-15 23:01:00,55.6,48.5,30.00,South,180,0.0,0.0,77,0.00,,---,0.00,VWS V14.01,2013-06-16 06:01:00,
2013-06-15 23:06:00,55.2,48.8,30.00,South,180,0.0,0.0,79,0.00,,---,0.00,VWS V14.01,2013-06-16 06:06:00,
2013-06-15 23:11:00,54.9,48.8,30.03,South,180,0.0,0.0,80,0.00,,---,0.00,VWS V14.01,2013-06-16 06:11:00,
2013-06-15 23:16:00,54.7,48.6,30.03,South,180,0.0,0.0,80,0.00,,---,0.00,VWS V14.01,2013-06-16 06:16:00,
2013-06-15 23:21:00,54.7,49.0,30.03,South,180,0.0,0.0,81,0.00,,---,0.00,VWS V14.01,2013-06-16 06:21:00,
2013-06-15 23:26:00,54.3,48.6,30.06,South,180,0.0,0.0,81,0.00,,---,0.00,VWS V14.01,2013-06-16 06:26:00,
2013-06-15 23:31:00,54.1,48.5,30.06,SSE,158,0.0,0.0,81,0.00,,---,0.00,VWS V14.01,2013-06-16 06:31:00,
2013-06-15 23:36:00,54.0,48.6,30.06,South,180,0.0,0.0,82,0.00,,---,0.00,VWS V14.01,2013-06-16 06:36:00,
2013-06-15 23:41:00,53.8,48.8,30.03,South,180,0.0,0.0,83,0.00,,---,0.00,VWS V14.01,2013-06-16 06:41:00,
2013-06-15 23:46:00,53.8,48.8,30.03,SSW,202,0.0,0.0,83,0.00,,---,0.00,VWS V14.01,2013-06-16 06:46:00,
2013-06-15 23:51:00,53.6,48.6,30.03,SSW,202,0.0,0.0,83,0.00,,---,0.00,VWS V14.01,2013-06-16 06:51:00,
2013-06-15 23:56:00,53.2,48.2,30.03,SSW,202,0.0,0.0,83,0.00,,---,0.00,VWS V14.01,2013-06-16 06:56:00,